Weather History for KEWR - April, 2014

Change the Weather History Date:

Tuesday, April 22, 2014

  Actual Average Record
Temperature  
Mean Temperature 62 °F 55 °F  
Max Temperature 76 °F 65 °F 87 °F (1985)
Min Temperature 48 °F 46 °F 32 °F (1947)
Degree Days  
Heating Degree Days 3 10  
Month to date heating degree days 284 305  
Since 1 July heating degree days 4993 4649  
Cooling Degree Days 0 1  
Month to date cooling degree days 8 1  
Year to date cooling degree days 8 2  
Growing Degree Days 12 (Base 50)    
Moisture  
Dew Point 47 °F    
Average Humidity 59    
Maximum Humidity 86    
Minimum Humidity 31    
Precipitation  
Precipitation T in 0.13 in 2.64 in (2012)
Month to date precipitation 1.96 3.14  
Year to date precipitation 13.33 13.74  
Snow  
Snow 0.00 in 0.10 in T in (1972)
Month to date snowfall 0.4 0.9  
Since 1 July snowfall 61.1 28.5  
Snow Depth 0.00 in    
Sea Level Pressure  
Sea Level Pressure 29.66 in    
Wind  
Wind Speed 9 mph (SW)    
Max Wind Speed 22 mph    
Max Gust Speed 35 mph    
Visibility 10 miles    
Events Rain    
T = Trace of Precipitation, MM = Missing Value Source: NWS Daily Summary

Daily Weather History Graph

Daily Weather History Graph

Search for Another Location

Airport or City:

Trip Planner

Search our weather history database for the weather conditions in past years. The results will help you decide how hot, cold, wet, or windy it might be!

Date:

Astronomy

Apr. 22, 2014 Rise Set
Actual Time 6:07 AM EDT 7:43 PM EDT
Civil Twilight 5:38 AM EDT 8:12 PM EDT
Nautical Twilight 5:03 AM EDT 8:47 PM EDT
Astronomical Twilight 4:26 AM EDT 9:24 PM EDT
Moon 1:56 AM EDT (4/22) 12:39 PM EDT (4/22)
Length of Visible Light 14h 33m
Length of Day
13h 35m
Last Quarter, 46% of the Moon is Illuminated
Apr 22
Last Quarter
Apr 29
New
May 6
First Quarter
May 14
Full
May 21
Last Quarter

Hourly Weather History & Observations

Time (EDT) Temp. Dew Point Humidity Pressure Visibility Wind Dir Wind Speed Gust Speed Precip Events Conditions
12:51 AM 51.1 °F 43.0 °F 74% 29.87 in 10.0 mi SSE 3.5 mph - N/A   Mostly Cloudy
1:51 AM 48.2 °F 42.8 °F 82% 29.85 in 10.0 mi South 4.6 mph - N/A   Mostly Cloudy
2:51 AM 48.9 °F 43.0 °F 80% 29.82 in 10.0 mi South 4.6 mph - N/A   Mostly Cloudy
3:51 AM 48.2 °F 42.8 °F 82% 29.80 in 10.0 mi South 3.5 mph - N/A   Mostly Cloudy
4:51 AM 48.0 °F 44.1 °F 86% 29.79 in 10.0 mi SSW 5.8 mph - N/A   Mostly Cloudy
5:51 AM 48.9 °F 44.1 °F 83% 29.77 in 10.0 mi South 4.6 mph - N/A   Mostly Cloudy
6:51 AM 50.0 °F 46.0 °F 86% 29.77 in 10.0 mi South 3.5 mph - N/A   Mostly Cloudy
7:51 AM 52.0 °F 46.9 °F 83% 29.75 in 10.0 mi SW 8.1 mph 21.9 mph N/A   Mostly Cloudy
8:51 AM 54.0 °F 46.9 °F 77% 29.73 in 10.0 mi SW 9.2 mph - N/A   Mostly Cloudy
9:51 AM 59.0 °F 46.9 °F 64% 29.70 in 10.0 mi SSW 8.1 mph - N/A   Overcast
10:51 AM 66.9 °F 46.0 °F 47% 29.67 in 10.0 mi SSW 12.7 mph 18.4 mph N/A   Overcast
11:51 AM 66.9 °F 45.0 °F 45% 29.64 in 10.0 mi SSW 9.2 mph 18.4 mph N/A   Mostly Cloudy
12:51 PM 70.0 °F 44.1 °F 39% 29.62 in 10.0 mi South 11.5 mph - N/A   Mostly Cloudy
1:51 PM 73.0 °F 44.1 °F 35% 29.59 in 10.0 mi SW 10.4 mph 20.7 mph N/A   Mostly Cloudy
2:51 PM 75.9 °F 43.0 °F 31% 29.56 in 10.0 mi WSW 10.4 mph 16.1 mph N/A   Mostly Cloudy
3:51 PM 75.0 °F 44.1 °F 33% 29.54 in 10.0 mi West 16.1 mph 23.0 mph 0.00 in Rain Light Rain
4:51 PM 68.0 °F 52.0 °F 56% 29.55 in 8.0 mi WNW 16.1 mph 20.7 mph 0.00 in Rain Light Rain
5:51 PM 66.2 °F 51.8 °F 60% 29.53 in 10.0 mi West 18.4 mph 23.0 mph N/A   Overcast
6:51 PM 66.0 °F 51.1 °F 59% 29.53 in 10.0 mi WSW 12.7 mph 26.5 mph 0.00 in Rain Light Rain
7:51 PM 64.9 °F 52.0 °F 63% 29.53 in 10.0 mi WSW 10.4 mph 20.7 mph 0.00 in Rain Light Rain
8:51 PM 64.0 °F 52.0 °F 65% 29.54 in 10.0 mi WSW 11.5 mph 25.3 mph 0.00 in   Mostly Cloudy
9:51 PM 63.0 °F 52.0 °F 67% 29.53 in 10.0 mi WSW 8.1 mph - 0.00 in   Overcast
10:51 PM 63.0 °F 50.0 °F 63% 29.52 in 10.0 mi WSW 9.2 mph - N/A   Mostly Cloudy
11:51 PM 61.0 °F 48.9 °F 64% 29.51 in 10.0 mi WSW 5.8 mph - N/A   Scattered Clouds